EW7082 Weather Reports


time (UTC)temp
C
wind
direction
speed
KPH
gust
KPH
rain 1hr
cm
rain 24hr
cm
rain mn
cm
humidity
%
barometer
mb
20260902120204 12 265 1.6 3.2 0.00 0.00 0.00 94 1005.4
20260902115704 12 275 0.0 1.6 0.00 0.00 0.00 94 1005.4
20260902113704 12 275 0.0 1.6 0.00 0.00 0.00 94 1005.8
20260902112205 12 217 0.0 1.6 0.00 0.00 0.00 94 1005.9
20260902111705 12 217 1.6 3.2 0.00 0.00 0.00 94 1006.1
20260902111203 13 217 1.6 3.2 0.00 0.00 0.00 94 1006.2
20260902110705 13 77 0.0 1.6 0.00 0.00 0.00 94 1006.1
20260902110204 13 77 0.0 3.2 0.00 0.00 0.00 94 1006.1
20260902105705 13 73 1.6 3.2 0.00 0.00 0.00 94 1006.2
20260902104204 13 80 1.6 1.6 0.00 0.00 0.00 94 1006.2
20260902103704 13 80 0.0 1.6 0.00 0.00 0.00 94 1006.3
20260902103205 13 80 0.0 1.6 0.00 0.00 0.00 94 1006.3
20260902102705 13 80 0.0 0.0 0.00 0.00 0.00 94 1006.5
20260902102204 13 80 0.0 0.0 0.00 0.00 0.00 94 1006.5
20260902101706 13 80 0.0 0.0 0.00 0.00 0.00 94 1006.7
20260902100705 13 80 1.6 3.2 0.00 0.00 0.00 94 1006.7
20260902100204 13 264 0.0 3.2 0.00 0.00 0.00 94 1006.7
20260902095704 13 264 1.6 3.2 0.00 0.00 0.00 94 1006.7
20260902095204 12 264 0.0 1.6 0.00 0.00 0.00 94 1006.7
20260902094705 12 264 1.6 3.2 0.00 0.00 0.00 94 1006.8
20260902094204 12 232 1.6 3.2 0.00 0.00 0.00 94 1006.8
20260902093704 12 232 0.0 1.6 0.00 0.00 0.00 94 1006.9
20260902093205 12 232 3.2 4.8 0.00 0.00 0.00 94 1007.0
20260902092704 13 213 0.0 1.6 0.00 0.00 0.00 94 1007.0
20260902092204 12 213 0.0 0.0 0.00 0.00 0.00 94 1007.0
20260902091204 12 302 1.6 3.2 0.00 0.00 0.00 93 1007.2
20260902090704 12 302 1.6 3.2 0.00 0.00 0.00 93 1007.2
20260902090206 12 295 1.6 3.2 0.00 0.00 0.00 94 1007.3
20260902085703 12 51 3.2 4.8 0.00 0.00 0.00 93 1007.3
20260902085205 12 202 1.6 4.8 0.00 0.00 0.00 93 1007.3
20260902084705 12 202 1.6 4.8 0.00 0.00 0.00 92 1007.4
20260902084205 13 202 0.0 1.6 0.00 0.00 0.00 92 1007.3
20260902083704 13 202 0.0 1.6 0.00 0.00 0.00 92 1007.4
20260902083205 13 202 1.6 3.2 0.00 0.00 0.00 92 1007.6
20260902082705 13 202 0.0 1.6 0.00 0.00 0.00 92 1007.6
20260902082204 13 202 1.6 3.2 0.00 0.00 0.00 92 1007.7
20260902081705 13 202 0.0 3.2 0.00 0.00 0.00 92 1007.5
20260902081205 13 202 0.0 0.0 0.00 0.00 0.00 92 1007.5
20260902080704 13 202 0.0 0.0 0.00 0.00 0.00 92 1007.5
20260902080205 13 202 0.0 3.2 0.00 0.00 0.00 91 1007.6
20260902075703 13 202 0.0 1.6 0.00 0.00 0.00 91 1007.7
20260902075204 13 202 3.2 4.8 0.00 0.00 0.00 90 1007.8
20260902074704 14 51 0.0 0.0 0.00 0.00 0.00 90 1007.8
20260902074204 14 51 0.0 3.2 0.00 0.00 0.00 91 1007.8
20260902073705 15 51 0.0 3.2 0.00 0.00 0.00 90 1007.8
20260902073204 15 51 0.0 0.0 0.00 0.00 0.00 90 1007.8
20260902072704 15 51 0.0 0.0 0.00 0.00 0.00 90 1007.9
20260902072204 15 51 0.0 1.6 0.00 0.00 0.00 89 1008.1
20260902071704 15 51 1.6 3.2 0.00 0.00 0.00 89 1008.0
20260902071205 15 51 0.0 1.6 0.00 0.00 0.00 89 1007.9
20260902070704 15 51 0.0 0.0 0.00 0.00 0.00 89 1008.0
20260902070205 15 51 0.0 0.0 0.00 0.00 0.00 89 1008.0
20260902065704 15 51 0.0 0.0 0.00 0.00 0.00 89 1008.0
20260902065204 16 51 0.0 0.0 0.00 0.00 0.00 88 1008.1
20260902064705 16 51 0.0 0.0 0.00 0.00 0.00 88 1008.1
20260902064204 16 51 0.0 0.0 0.00 0.00 0.00 88 1008.1
20260902063703 16 51 0.0 1.6 0.00 0.00 0.00 88 1008.2
20260902062705 16 51 0.0 0.0 0.00 0.00 0.00 87 1008.3
20260902061705 16 51 0.0 0.0 0.00 0.00 0.00 87 1008.3
20260902061203 16 51 0.0 3.2 0.00 0.00 0.00 87 1008.2
20260902060204 16 41 1.6 4.8 0.00 0.00 0.00 87 1008.4
20260902055204 16 302 0.0 0.0 0.00 0.00 0.00 87 1008.5
20260902054705 16 302 0.0 0.0 0.00 0.00 0.00 87 1008.5
20260902054205 16 302 0.0 0.0 0.00 0.00 0.00 87 1008.7
20260902053704 16 302 0.0 0.0 0.00 0.00 0.00 87 1008.6
20260902053206 16 302 0.0 0.0 0.00 0.00 0.00 86 1008.6
20260902052205 16 302 0.0 0.0 0.00 0.00 0.00 87 1008.8
20260902051704 16 302 0.0 0.0 0.00 0.00 0.00 87 1008.8
20260902051204 16 302 0.0 0.0 0.00 0.00 0.00 87 1008.8
20260902050704 16 302 0.0 0.0 0.00 0.00 0.00 87 1008.8
20260902050204 16 302 0.0 0.0 0.00 0.00 0.00 87 1008.9
20260902045704 16 302 0.0 1.6 0.00 0.00 0.00 87 1008.8
20260902045204 16 302 0.0 0.0 0.00 0.00 0.00 87 1008.8
20260902044705 16 302 0.0 0.0 0.00 0.00 0.00 87 1008.9
20260902044204 16 302 0.0 0.0 0.00 0.00 0.00 87 1008.9
20260902043205 16 302 0.0 0.0 0.00 0.00 0.00 87 1009.0
20260902042704 16 302 0.0 0.0 0.00 0.00 0.00 87 1009.0
20260902042204 16 302 0.0 3.2 0.00 0.00 0.00 87 1009.1
20260902041704 16 302 1.6 3.2 0.00 0.00 0.00 86 1009.1
20260902041204 16 302 0.0 3.2 0.00 0.00 0.00 86 1009.0
20260902040204 17 302 0.0 0.0 0.00 0.00 0.00 86 1009.0
20260902035705 17 302 0.0 0.0 0.00 0.00 0.00 86 1008.9
20260902035204 17 302 0.0 0.0 0.00 0.00 0.00 85 1008.9
20260902034705 17 302 0.0 0.0 0.00 0.00 0.00 85 1008.9
20260902034205 17 302 0.0 0.0 0.00 0.00 0.00 85 1008.9
20260902033704 17 302 0.0 0.0 0.00 0.00 0.00 85 1008.8
20260902033204 17 302 0.0 0.0 0.00 0.00 0.00 84 1008.8
20260902032704 17 302 0.0 0.0 0.00 0.00 0.00 83 1008.8
20260902032205 17 302 0.0 0.0 0.00 0.00 0.00 83 1008.8
20260902031705 17 302 0.0 0.0 0.00 0.00 0.00 83 1008.7
20260902030705 17 302 0.0 0.0 0.00 0.00 0.00 83 1008.9
20260902030205 17 302 0.0 0.0 0.00 0.00 0.00 82 1008.9
20260902025704 17 302 0.0 0.0 0.00 0.00 0.00 82 1008.9
20260902025204 17 302 0.0 0.0 0.00 0.00 0.00 82 1008.9
20260902024706 17 302 0.0 0.0 0.00 0.00 0.00 82 1008.9
20260902024205 17 302 0.0 0.0 0.00 0.00 0.00 81 1009.0
20260902023704 17 302 0.0 0.0 0.00 0.00 0.00 81 1009.0
20260902023206 17 302 0.0 0.0 0.00 0.00 0.00 82 1009.0
20260902022703 17 302 0.0 0.0 0.00 0.00 0.00 82 1009.0
20260902022204 17 302 0.0 0.0 0.00 0.00 0.00 81 1009.0
20260902021705 17 302 0.0 0.0 0.00 0.00 0.00 82 1009.0
20260902021204 17 302 0.0 1.6 0.00 0.00 0.00 81 1009.0
20260902020704 17 302 0.0 1.6 0.00 0.00 0.00 82 1009.0
20260902015705 17 302 0.0 0.0 0.00 0.00 0.00 81 1009.2
20260902015205 17 302 0.0 1.6 0.00 0.00 0.00 81 1009.2
20260902014705 17 302 0.0 1.6 0.00 0.00 0.00 81 1009.2
20260902014204 17 302 3.2 9.7 0.00 0.00 0.00 81 1009.2
20260902013704 17 152 0.0 0.0 0.00 0.00 0.00 80 1009.2
20260902013205 17 152 0.0 0.0 0.00 0.00 0.00 80 1009.1
20260902011705 17 152 0.0 0.0 0.00 0.00 0.00 80 1009.2
20260902011205 17 152 0.0 0.0 0.00 0.00 0.00 80 1009.2
20260902010704 17 152 0.0 0.0 0.00 0.00 0.00 80 1009.1
20260902005704 17 152 0.0 0.0 0.00 0.00 0.00 80 1009.2
20260902004204 17 152 0.0 3.2 0.00 0.00 0.00 80 1009.1
20260902003704 17 152 0.0 3.2 0.00 0.00 0.00 80 1009.2
20260902003204 17 152 0.0 0.0 0.00 0.00 0.00 80 1009.2
20260902002704 17 152 0.0 0.0 0.00 0.00 0.00 80 1009.2
20260902002204 17 152 0.0 0.0 0.00 0.00 0.00 80 1009.1
20260902001705 17 42 0.0 0.0 0.00 0.00 0.00 80 1009.1
20260902001205 17 42 0.0 0.0 0.00 0.00 0.00 80 1009.2
20260902000204 17 329 0.0 0.0 0.00 0.00 0.00 79 1009.3
20260901235704 17 329 1.6 3.2 0.00 0.00 0.00 79 1009.3
20260901235204 17 350 0.0 0.0 0.00 0.00 0.00 79 1009.3
20260901234705 17 350 0.0 3.2 0.00 0.00 0.00 79 1009.3
20260901234205 17 352 0.0 3.2 0.00 0.00 0.00 79 1009.3
20260901233204 17 281 3.2 4.8 0.00 0.00 0.00 79 1009.3
20260901232705 17 309 3.2 4.8 0.00 0.00 0.00 79 1009.3
20260901232204 17 308 3.2 8.0 0.00 0.00 0.00 79 1009.3
20260901231705 17 316 4.8 4.8 0.00 0.00 0.00 79 1009.3
20260901231204 17 320 4.8 8.0 0.00 0.00 0.00 78 1009.3
20260901230704 17 314 4.8 8.0 0.00 0.00 0.00 79 1009.3
20260901230205 17 335 4.8 11.3 0.00 0.00 0.00 78 1009.3
20260901225704 17 298 4.8 8.0 0.00 0.00 0.00 79 1009.3
20260901225203 17 300 4.8 11.3 0.00 0.00 0.00 78 1009.3
20260901224704 17 320 4.8 11.3 0.00 0.00 0.00 78 1009.3
20260901224204 17 293 4.8 9.7 0.00 0.00 0.00 78 1009.3
20260901223705 17 300 4.8 9.7 0.00 0.00 0.00 78 1009.3
20260901223206 17 294 4.8 4.8 0.00 0.00 0.00 79 1009.3
20260901222704 17 314 4.8 12.9 0.00 0.00 0.00 79 1009.3
20260901222204 17 305 4.8 12.9 0.00 0.00 0.00 79 1009.4
20260901221705 17 311 9.7 14.5 0.00 0.00 0.00 79 1009.5
20260901220704 17 316 8.0 12.9 0.00 0.00 0.00 80 1009.5
20260901220206 17 294 8.0 11.3 0.00 0.00 0.00 80 1009.5
20260901215704 17 315 4.8 8.0 0.00 0.00 0.00 80 1009.5
20260901214705 17 321 3.2 4.8 0.00 0.00 0.00 80 1009.6
20260901214205 17 307 6.4 11.3 0.00 0.00 0.00 79 1009.7
20260901213704 17 297 4.8 9.7 0.00 0.00 0.00 79 1009.7
20260901213205 18 303 4.8 9.7 0.00 0.00 0.00 78 1009.7
20260901211705 18 310 4.8 9.7 0.00 0.00 0.00 78 1009.8
20260901211204 18 281 8.0 12.9 0.00 0.00 0.00 78 1009.9
20260901210704 18 279 6.4 12.9 0.00 0.00 0.00 77 1009.9
20260901210205 18 278 9.7 14.5 0.00 0.00 0.00 77 1009.9
20260901205704 18 287 9.7 16.1 0.00 0.00 0.00 77 1009.9
20260901205204 18 286 9.7 16.1 0.00 0.00 0.00 76 1009.9
20260901203704 18 281 9.7 14.5 0.00 0.00 0.00 74 1010.0
20260901202704 19 327 8.0 14.5 0.00 0.00 0.00 72 1009.9
20260901201704 20 323 6.4 11.3 0.00 0.00 0.00 72 1009.8
20260901201204 20 302 9.7 14.5 0.00 0.00 0.00 73 1009.8
20260901200204 20 295 8.0 16.1 0.00 0.00 0.00 72 1009.8
20260901195704 20 280 4.8 16.1 0.00 0.00 0.00 72 1009.6
20260901195204 20 331 8.0 12.9 0.00 0.00 0.00 71 1009.6
20260901194704 20 292 9.7 14.5 0.00 0.00 0.00 72 1009.7
20260901194204 20 349 8.0 11.3 0.00 0.00 0.00 73 1009.7
20260901193703 20 292 8.0 12.9 0.00 0.00 0.00 73 1009.7
20260901193205 20 211 4.8 9.7 0.00 0.00 0.00 75 1009.8
20260901192705 20 297 3.2 9.7 0.00 0.00 0.00 75 1009.8
20260901192205 19 284 8.0 11.3 0.00 0.00 0.00 76 1009.8
20260901191704 19 259 8.0 19.3 0.00 0.00 0.00 77 1010.0
20260901191204 19 296 6.4 11.3 0.00 0.00 0.00 77 1009.9
20260901190704 19 306 8.0 14.5 0.00 0.00 0.00 77 1009.9
20260901190205 18 37 4.8 9.7 0.00 0.00 0.00 78 1009.9
20260901185704 18 99 4.8 14.5 0.00 0.00 0.00 77 1009.9
20260901185205 18 241 4.8 9.7 0.00 0.00 0.00 80 1009.8
20260901184704 18 303 4.8 11.3 0.00 0.00 0.00 79 1009.9
20260901184204 18 305 4.8 11.3 0.00 0.00 0.00 80 1009.9
20260901183704 17 268 4.8 9.7 0.00 0.00 0.00 81 1009.9
20260901183205 17 336 8.0 12.9 0.00 0.00 0.00 82 1009.9
20260901182705 17 297 4.8 11.3 0.00 0.00 0.00 83 1009.9
20260901181205 16 305 9.7 14.5 0.00 0.00 0.00 86 1010.0
20260901180704 16 321 4.8 14.5 0.00 0.00 0.00 87 1010.1
20260901175705 16 306 8.0 12.9 0.00 0.00 0.00 87 1010.0
20260901175204 16 311 9.7 14.5 0.00 0.00 0.00 88 1010.0
20260901174705 16 273 4.8 14.5 0.00 0.00 0.00 90 1010.0
20260901174204 15 307 9.7 16.1 0.00 0.00 0.00 90 1010.0
20260901173204 15 296 8.0 14.5 0.00 0.00 0.00 90 1010.0
20260901172704 15 273 11.3 14.5 0.00 0.00 0.00 90 1010.0
20260901172205 15 266 8.0 14.5 0.00 0.00 0.00 91 1010.0
20260901171704 15 243 11.3 19.3 0.00 0.00 0.00 91 1010.0
20260901171205 15 272 8.0 16.1 0.00 0.00 0.00 91 1010.0
20260901170704 15 267 9.7 14.5 0.00 0.00 0.00 91 1010.0
20260901170205 15 263 9.7 16.1 0.00 0.00 0.00 92 1010.0
20260901165704 15 285 3.2 9.7 0.00 0.00 0.00 92 1010.0
20260901164705 15 303 8.0 11.3 0.00 0.00 0.00 92 1009.8
20260901164205 15 266 6.4 11.3 0.00 0.00 0.00 93 1009.8
20260901163704 14 279 4.8 9.7 0.00 0.00 0.00 93 1009.8
20260901163206 14 272 8.0 11.3 0.00 0.00 0.00 94 1009.9
20260901162705 14 270 4.8 14.5 0.00 0.00 0.00 94 1009.9
20260901162205 14 260 8.0 11.3 0.00 0.00 0.00 94 1009.9
20260901161704 14 256 8.0 12.9 0.00 0.00 0.00 95 1009.9
20260901161205 14 288 3.2 4.8 0.00 0.00 0.00 95 1009.9
20260901160703 13 281 3.2 11.3 0.00 0.00 0.00 95 1009.9
20260901160204 13 263 3.2 12.9 0.00 0.00 0.00 95 1009.9
20260901155704 13 266 4.8 11.3 0.00 0.00 0.00 95 1009.8
20260901155204 13 285 3.2 4.8 0.00 0.00 0.00 96 1009.9
20260901154705 13 289 4.8 4.8 0.00 0.00 0.00 96 1009.9
20260901154204 13 294 1.6 4.8 0.00 0.00 0.00 96 1009.9
20260901153205 12 278 1.6 4.8 0.00 0.00 0.00 96 1009.9
20260901152705 12 274 1.6 4.8 0.00 0.00 0.00 96 1009.9
20260901152204 12 277 1.6 4.8 0.00 0.00 0.00 96 1009.9
20260901151706 12 274 3.2 4.8 0.00 0.00 0.00 96 1009.9
20260901151203 12 274 1.6 4.8 0.00 0.00 0.00 96 1009.8
20260901150704 11 260 0.0 1.6 0.00 0.00 0.00 96 1009.7
20260901150206 11 260 1.6 4.8 0.00 0.00 0.00 96 1009.7
20260901145704 11 261 0.0 1.6 0.00 0.00 0.00 96 1009.6
20260901145204 11 261 0.0 0.0 0.00 0.00 0.00 96 1009.6
20260901144204 11 280 1.6 3.2 0.00 0.00 0.00 96 1009.5
20260901143704 11 266 1.6 3.2 0.00 0.00 0.00 96 1009.5
20260901143204 11 266 0.0 3.2 0.00 0.00 0.00 96 1009.3
20260901142703 10 257 0.0 3.2 0.00 0.00 0.00 97 1009.3
20260901142204 10 190 0.0 0.0 0.00 0.00 0.00 97 1009.3
20260901141204 10 190 0.0 0.0 0.00 0.00 0.00 96 1009.3
20260901140703 10 190 0.0 0.0 0.00 0.00 0.00 96 1009.3
20260901140206 10 190 0.0 0.0 0.00 0.00 0.00 96 1009.3
20260901134204 9 190 0.0 0.0 0.00 0.00 0.00 96 1009.1
20260901133705 9 190 0.0 0.0 0.00 0.00 0.00 96 1009.1
20260901133205 9 190 0.0 0.0 0.00 0.00 0.00 96 1009.1
20260901132704 9 190 0.0 0.0 0.00 0.00 0.00 96 1009.1
20260901132204 9 190 0.0 0.0 0.00 0.00 0.00 96 1009.1
20260901131706 9 190 0.0 0.0 0.00 0.00 0.00 96 1009.0
20260901131205 8 190 0.0 0.0 0.00 0.00 0.00 96 1009.0
20260901130205 8 190 0.0 0.0 0.00 0.00 0.00 95 1009.0
20260901124203 8 190 0.0 1.6 0.00 0.00 0.00 95 1009.1
20260901123704 8 190 0.0 3.2 0.00 0.00 0.00 94 1009.1
20260901122704 9 155 0.0 1.6 0.00 0.00 0.00 95 1009.1
20260901122204 10 175 0.0 1.6 0.00 0.00 0.00 96 1009.2
20260901121705 10 288 0.0 1.6 0.00 0.00 0.00 95 1009.2